[[{"header":{"parameterUnit":"m.s-1","parameterCategory":1,"la1":30.2992,"la2":30.254,"lo1":-89.0895,"lo2":-89.0443,"dy":0.0025,"dx":0.0025,"nx":19,"ny":19,"refTime":"2026-03-13T09:00:00:Z","depth":0,"parameterNumber":2,"parameterNumberName":"U-component_of_WINDS"},"data":[0,0,0,-1.4217,-1.4221,-1.4407,-1.4408,-1.463,-1.4631,0,0,0,0,0,0,0,0,0,0,0,-1.415,-1.4151,-1.4217,-1.4221,-1.4407,-1.4408,-1.4629,-1.4631,0,0,0,0,0,0,0,0,0,0,0,-1.4149,-1.4151,-1.4152,-1.4222,-1.4407,-1.4408,-1.4629,-1.4495,0,0,0,0,0,0,0,0,0,0,-1.4317,-1.4242,-1.415,-1.4152,-1.4223,-1.4407,-1.4408,-1.4489,-1.4503,-1.4537,0,-1.4562,0,-1.46,-1.4645,-1.4646,0,0,0,-1.4231,-1.423,-1.4291,-1.4152,-1.4225,-1.4407,-1.4326,-1.4497,-1.4513,-1.4556,-1.4566,-1.4574,-1.4604,-1.4646,-1.4647,-1.4805,-1.4805,0,0,-1.4221,-1.4177,-1.428,-1.4301,-1.4269,-1.432,-1.4332,-1.4507,-1.4515,-1.4567,-1.458,-1.4607,-1.4648,-1.4649,-1.4805,-1.4805,0,0,0,-1.4185,-1.417,-1.4227,-1.4291,-1.4326,-1.4325,-1.4339,-1.4508,-1.453,-1.4583,-1.461,-1.4649,-1.4651,-1.4804,-1.4805,-1.4774,0,0,0,-1.4179,-1.4149,-1.4222,-1.4197,-1.4322,-1.4419,-1.4335,-1.4518,-1.4539,-1.4609,-1.4649,-1.4653,-1.4804,-1.4805,-1.4774,-1.4767,0,0,0,-1.4142,-1.4145,-1.4167,-1.4194,-1.4273,-1.4417,-1.445,-1.4523,-1.4555,-1.4646,-1.4654,-1.4804,-1.4804,-1.4775,-1.4768,-1.4795,0,0,0,-1.4091,-1.4139,-1.4166,-1.423,-1.4271,-1.4396,-1.4449,-1.4545,-1.4619,-1.465,-1.4804,-1.4805,-1.4775,-1.4768,-1.4795,-1.481,-1.4812,0,0,-1.4127,-1.4141,-1.4183,-1.4213,-1.4321,-1.4371,-1.4477,-1.4587,-1.4638,-1.4747,-1.4751,-1.4774,-1.4768,-1.4795,-1.4839,-1.484,0,0,0,-1.418,-1.4209,-1.4248,-1.4315,-1.4398,-1.4471,-1.4569,-1.461,-1.4705,-1.4684,-1.4793,-1.4791,-1.4809,-1.4818,-1.4819,-1.4837,-1.4807,-1.4807,-1.4807,-1.4169,-1.4228,-1.4301,-1.4382,-1.4447,-1.4548,-1.4606,-1.4679,-1.4722,-1.4747,-1.478,-1.4799,-1.4807,-1.4809,-1.4827,-1.4793,-1.4793,-1.4792,-1.4792,-1.4228,-1.4278,-1.4332,-1.4421,-1.4485,-1.4562,-1.4661,-1.4688,-1.477,-1.4779,-1.4798,-1.4802,-1.4808,-1.4827,-1.4791,-1.4791,-1.4791,-1.4791,-1.4792,-1.4227,-1.4261,-1.4309,-1.4411,-1.4484,-1.4567,-1.4642,-1.4698,-1.4751,-1.477,-1.481,-1.4811,-1.4818,-1.4785,-1.4785,-1.4785,-1.4785,-1.4785,-1.4785,-1.4206,-1.4261,-1.4317,-1.4409,-1.4459,-1.4532,-1.4634,-1.4686,-1.4757,-1.4792,-1.4793,-1.4833,-1.4797,-1.4787,-1.4786,-1.4786,-1.4786,-1.4786,-1.4786,-1.4243,-1.4243,-1.4328,-1.4378,-1.4492,-1.456,-1.463,-1.473,-1.4782,-1.4817,-1.4854,-1.4818,-1.4838,-1.4837,-1.4829,-1.484,-1.484,-1.484,-1.484,-1.4241,-1.4256,-1.4356,-1.4432,-1.4513,-1.4584,-1.4681,-1.476,-1.4843,-1.4879,-1.4886,-1.4879,-1.4876,-1.4898,-1.4897,-1.489,-1.4916,-1.4916,-1.4916,-1.4267,-1.4292,-1.4362,-1.444,-1.4533,-1.4612,-1.4704,-1.4791,-1.4886,-1.492,-1.4908,-1.4905,-1.4896,-1.489,-1.4923,-1.4919,-1.4908,0,0]},{"header":{"parameterUnit":"m.s-1","parameterCategory":1,"la1":30.2992,"la2":30.254,"lo1":-89.0895,"lo2":-89.0443,"dy":0.0025,"dx":0.0025,"nx":19,"ny":19,"refTime":"2026-03-13T09:00:00:Z","depth":0,"parameterNumber":3,"parameterNumberName":"V-component_of_WINDS"},"data":[0,0,0,-1.7263,-1.7262,-1.7196,-1.7195,-1.7113,-1.7112,0,0,0,0,0,0,0,0,0,0,0,-1.7286,-1.7286,-1.7264,-1.7262,-1.7196,-1.7195,-1.7113,-1.7112,0,0,0,0,0,0,0,0,0,0,0,-1.7287,-1.7286,-1.7286,-1.7262,-1.7196,-1.7195,-1.7113,-1.7162,0,0,0,0,0,0,0,0,0,0,-1.7226,-1.7251,-1.7286,-1.7286,-1.7261,-1.7196,-1.7195,-1.7164,-1.7159,-1.7145,0,-1.7135,0,-1.7122,-1.7107,-1.7107,0,0,0,-1.7259,-1.7255,-1.7235,-1.7286,-1.7261,-1.7196,-1.7225,-1.7161,-1.7155,-1.7138,-1.7133,-1.713,-1.7121,-1.7107,-1.7106,-1.7037,-1.7037,0,0,-1.7263,-1.7276,-1.7239,-1.7231,-1.7243,-1.7227,-1.7223,-1.7158,-1.7153,-1.7133,-1.7128,-1.712,-1.7106,-1.7106,-1.7038,-1.7037,0,0,0,-1.7275,-1.7279,-1.7259,-1.7235,-1.7222,-1.7225,-1.722,-1.7156,-1.7149,-1.7127,-1.7119,-1.7106,-1.7105,-1.7038,-1.7037,-1.7041,0,0,0,-1.7277,-1.7286,-1.7261,-1.7268,-1.7224,-1.7189,-1.722,-1.7153,-1.7145,-1.7119,-1.7106,-1.7104,-1.7038,-1.7038,-1.7041,-1.7039,0,0,0,-1.729,-1.7287,-1.7279,-1.7269,-1.7241,-1.7189,-1.7178,-1.7151,-1.714,-1.7107,-1.7104,-1.7038,-1.7038,-1.7041,-1.704,-1.7024,0,0,0,-1.7306,-1.7283,-1.7279,-1.725,-1.7242,-1.7193,-1.7179,-1.7141,-1.7113,-1.7105,-1.7038,-1.7037,-1.7041,-1.704,-1.7025,-1.7013,-1.701,0,0,-1.7284,-1.728,-1.7262,-1.7257,-1.7212,-1.7202,-1.7156,-1.7118,-1.7102,-1.7059,-1.7057,-1.7041,-1.704,-1.7024,-1.6988,-1.6986,0,0,0,-1.7259,-1.7246,-1.7231,-1.7205,-1.7176,-1.715,-1.7117,-1.7103,-1.7066,-1.7083,-1.7031,-1.703,-1.7021,-1.7014,-1.7012,-1.7002,-1.7036,-1.7036,-1.7036,-1.7245,-1.7227,-1.7195,-1.7169,-1.7144,-1.7111,-1.7088,-1.7063,-1.7051,-1.7039,-1.7026,-1.7007,-1.7,-1.6998,-1.6988,-1.7019,-1.7019,-1.7019,-1.7019,-1.7209,-1.7187,-1.7173,-1.7137,-1.7118,-1.7086,-1.7052,-1.7045,-1.7012,-1.7015,-1.7006,-1.7009,-1.6996,-1.6986,-1.7019,-1.7019,-1.7019,-1.7019,-1.7019,-1.7197,-1.7183,-1.7167,-1.7128,-1.71,-1.7074,-1.7043,-1.7026,-1.701,-1.7001,-1.6984,-1.6984,-1.6981,-1.6995,-1.6994,-1.6994,-1.6994,-1.6994,-1.6994,-1.7191,-1.7172,-1.7149,-1.7116,-1.7097,-1.707,-1.7036,-1.7016,-1.699,-1.698,-1.698,-1.6968,-1.6999,-1.7006,-1.6993,-1.6993,-1.6993,-1.6993,-1.6994,-1.7159,-1.7164,-1.7127,-1.7109,-1.7068,-1.704,-1.702,-1.6981,-1.6962,-1.6947,-1.6938,-1.6964,-1.6959,-1.696,-1.6966,-1.6943,-1.6943,-1.6943,-1.6943,-1.7148,-1.7144,-1.7103,-1.7074,-1.7043,-1.7021,-1.6979,-1.6952,-1.6924,-1.6911,-1.6912,-1.6919,-1.6921,-1.6914,-1.6917,-1.6922,-1.6889,-1.6889,-1.6889,-1.7126,-1.7119,-1.7087,-1.7062,-1.7028,-1.7,-1.6959,-1.6924,-1.6894,-1.6886,-1.69,-1.6902,-1.6913,-1.6918,-1.6908,-1.6913,-1.6922,0,0]}]]